When you browse on this site, cookies collect data to enhance your experience and personalize the content and advertising you see.
Visit our Privacy Policy to learn more. By continuing to use the site, you agree to this use of cookies and data.
  • In Italy
  • List of Countries
  • For 7 days
  • Water Temperature
  • Satellite Maps
  • Weather Map
  • Weather Widgets
  • user-avatar
    Login

    Hourly Weather Elbasan

    Today, 18 January, Friday

    Time Temperature Precipitation Wind Pressure Humidity
    00:00 +3°C° 0 mm 2 mps 737 mmHg 63%
    01:00 +3°C° 0 mm 2 mps 737 mmHg 65%
    02:00 +3°C° 0 mm 2 mps 737 mmHg 67%
    03:00 +3°C° 0 mm 2 mps 736 mmHg 70%
    04:00 +3°C° 0 mm 2 mps 736 mmHg 72%
    05:00 +4°C° 0 mm 2 mps 736 mmHg 74%
    06:00 +4°C° 0 mm 2 mps 736 mmHg 76%
    07:00 +4°C° 0 mm 2 mps 735 mmHg 77%
    08:00 +5°C° 0.3 mm 2 mps 735 mmHg 80%
    09:00 +6°C° 0.3 mm 2 mps 735 mmHg 82%
    10:00 +7°C° 0.3 mm 2 mps 735 mmHg 84%
    11:00 +7°C° 0.6 mm 2 mps 735 mmHg 83%
    12:00 +8°C° 0.6 mm 2 mps 735 mmHg 82%
    13:00 +8°C° 0.6 mm 2 mps 735 mmHg 81%
    14:00 +8°C° 0 mm 2 mps 735 mmHg 82%
    15:00 +8°C° 0 mm 2 mps 735 mmHg 83%
    16:00 +8°C° 0 mm 2 mps 735 mmHg 83%
    17:00 +7°C° 0 mm 2 mps 735 mmHg 84%
    18:00 +6°C° 0 mm 2 mps 735 mmHg 84%
    19:00 +5°C° 0 mm 2 mps 735 mmHg 85%
    20:00 +5°C° 0 mm 2 mps 735 mmHg 84%
    21:00 +5°C° 0 mm 2 mps 735 mmHg 83%
    22:00 +5°C° 0 mm 2 mps 735 mmHg 83%
    23:00 +5°C° 0 mm 2 mps 735 mmHg 83%

    Tomorrow, 19 January, Saturday

    Time Temperature Precipitation Wind Pressure Humidity
    00:00 +5°C° 0 mm 2 mps 735 mmHg 83%
    01:00 +5°C° 0 mm 2 mps 735 mmHg 83%
    02:00 +5°C° 0 mm 2 mps 735 mmHg 83%
    03:00 +5°C° 0 mm 2 mps 735 mmHg 83%
    04:00 +5°C° 0 mm 2 mps 735 mmHg 83%
    05:00 +5°C° 0 mm 2 mps 735 mmHg 83%
    06:00 +5°C° 0 mm 2 mps 735 mmHg 83%
    07:00 +5°C° 0 mm 2 mps 735 mmHg 82%
    08:00 +6°C° 0 mm 2 mps 735 mmHg 80%
    09:00 +8°C° 0 mm 2 mps 735 mmHg 78%
    10:00 +9°C° 0 mm 2 mps 736 mmHg 75%
    11:00 +10°C° 0 mm 2 mps 735 mmHg 73%
    12:00 +12°C° 0 mm 2 mps 735 mmHg 71%
    13:00 +12°C° 0 mm 1 mps 735 mmHg 68%
    14:00 +12°C° 0 mm 2 mps 734 mmHg 72%
    15:00 +10°C° 0 mm 2 mps 734 mmHg 75%
    16:00 +9°C° 0 mm 2 mps 734 mmHg 78%
    17:00 +8°C° 0.1 mm 2 mps 734 mmHg 80%
    18:00 +7°C° 0.1 mm 2 mps 734 mmHg 82%
    19:00 +6°C° 0.1 mm 2 mps 734 mmHg 83%
    20:00 +6°C° 0.1 mm 2 mps 734 mmHg 83%
    21:00 +6°C° 0.1 mm 2 mps 734 mmHg 83%
    22:00 +6°C° 0.1 mm 2 mps 735 mmHg 82%
    23:00 +6°C° 0.2 mm 2 mps 734 mmHg 82%

    Day after tomorrow, 20 January, Sunday

    Time Temperature Precipitation Wind Pressure Humidity
    00:00 +6°C° 0.2 mm 2 mps 734 mmHg 83%
    01:00 +6°C° 0.2 mm 2 mps 734 mmHg 83%
    02:00 +6°C° 0.2 mm 2 mps 734 mmHg 82%
    03:00 +6°C° 0.2 mm 2 mps 733 mmHg 82%
    04:00 +6°C° 0.2 mm 2 mps 733 mmHg 82%
    05:00 +6°C° 0.1 mm 2 mps 733 mmHg 82%
    06:00 +6°C° 0.1 mm 2 mps 733 mmHg 82%
    07:00 +6°C° 0.1 mm 2 mps 734 mmHg 82%
    08:00 +8°C° 0.1 mm 1 mps 734 mmHg 79%
    09:00 +9°C° 0.1 mm 1 mps 734 mmHg 77%
    10:00 +10°C° 0.1 mm 1 mps 734 mmHg 75%
    11:00 +10°C° 0.1 mm 1 mps 734 mmHg 76%
    12:00 +11°C° 0.1 mm 1 mps 734 mmHg 77%
    13:00 +11°C° 0.1 mm 1 mps 733 mmHg 78%
    14:00 +10°C° 0.3 mm 1 mps 733 mmHg 81%
    15:00 +10°C° 0.3 mm 1 mps 733 mmHg 84%
    16:00 +9°C° 0.3 mm 1 mps 733 mmHg 87%
    17:00 +9°C° 0 mm 1 mps 734 mmHg 89%
    18:00 +8°C° 0 mm 1 mps 734 mmHg 91%
    19:00 +7°C° 0 mm 1 mps 734 mmHg 93%
    20:00 +7°C° 0 mm 1 mps 734 mmHg 92%
    21:00 +7°C° 0 mm 1 mps 735 mmHg 92%
    22:00 +6°C° 0 mm 1 mps 735 mmHg 91%
    23:00 +6°C° 0 mm 1 mps 735 mmHg 90%

    21 January, Monday

    Time Temperature Precipitation Wind Pressure Humidity
    00:00 +6°C° 0 mm 1 mps 735 mmHg 89%
    01:00 +5°C° 0 mm 1 mps 735 mmHg 87%
    02:00 +5°C° 0 mm 1 mps 735 mmHg 86%
    03:00 +5°C° 0 mm 1 mps 735 mmHg 85%
    04:00 +5°C° 0 mm 1 mps 735 mmHg 84%
    05:00 +5°C° 0 mm 1 mps 735 mmHg 83%
    06:00 +4°C° 0 mm 2 mps 735 mmHg 82%
    07:00 +4°C° 0 mm 2 mps 735 mmHg 81%
    08:00 +5°C° 0 mm 2 mps 736 mmHg 76%
    09:00 +8°C° 0 mm 1 mps 736 mmHg 72%
    10:00 +10°C° 0 mm 1 mps 736 mmHg 67%
    11:00 +10°C° 0 mm 1 mps 736 mmHg 64%
    12:00 +11°C° 0 mm 1 mps 736 mmHg 61%
    13:00 +12°C° 0 mm 1 mps 736 mmHg 57%
    14:00 +11°C° 0 mm 1 mps 736 mmHg 61%
    15:00 +11°C° 0 mm 1 mps 735 mmHg 64%
    16:00 +10°C° 0 mm 1 mps 735 mmHg 67%
    17:00 +8°C° 0 mm 2 mps 736 mmHg 70%
    18:00 +7°C° 0 mm 2 mps 736 mmHg 73%
    19:00 +6°C° 0 mm 2 mps 736 mmHg 76%
    20:00 +5°C° 0 mm 3 mps 736 mmHg 76%
    21:00 +5°C° 0 mm 3 mps 736 mmHg 77%
    22:00 +4°C° 0 mm 3 mps 736 mmHg 77%
    23:00 +4°C° 0 mm 3 mps 736 mmHg 78%

    22 January, Tuesday

    Time Temperature Precipitation Wind Pressure Humidity
    00:00 +4°C° 0 mm 3 mps 735 mmHg 78%
    01:00 +4°C° 0 mm 3 mps 735 mmHg 79%
    02:00 +4°C° 0 mm 3 mps 734 mmHg 79%
    03:00 +4°C° 0 mm 3 mps 734 mmHg 80%
    04:00 +4°C° 0 mm 3 mps 733 mmHg 80%
    05:00 +4°C° 0.2 mm 4 mps 733 mmHg 79%
    06:00 +5°C° 0.2 mm 4 mps 733 mmHg 78%
    07:00 +5°C° 0.2 mm 4 mps 732 mmHg 78%
    08:00 +5°C° 0.7 mm 4 mps 732 mmHg 77%
    09:00 +6°C° 0.7 mm 4 mps 732 mmHg 76%
    10:00 +7°C° 0.7 mm 4 mps 731 mmHg 76%
    11:00 +8°C° 0.1 mm 4 mps 731 mmHg 73%
    12:00 +9°C° 0.1 mm 5 mps 730 mmHg 70%
    13:00 +10°C° 0.1 mm 5 mps 729 mmHg 67%
    14:00 +10°C° 0.8 mm 4 mps 729 mmHg 72%
    15:00 +9°C° 0.8 mm 3 mps 728 mmHg 77%
    16:00 +8°C° 0.8 mm 3 mps 727 mmHg 82%
    17:00 +7°C° 0.4 mm 3 mps 727 mmHg 83%
    18:00 +7°C° 0.4 mm 2 mps 727 mmHg 84%
    19:00 +7°C° 0.4 mm 2 mps 727 mmHg 85%
    20:00 +6°C° 1 mm 2 mps 727 mmHg 88%
    21:00 +6°C° 1 mm 2 mps 727 mmHg 90%
    22:00 +6°C° 1 mm 2 mps 727 mmHg 92%
    23:00 +6°C° 0.4 mm 2 mps 727 mmHg 93%

    23 January, Wednesday

    Time Temperature Precipitation Wind Pressure Humidity
    00:00 +5°C° 0.4 mm 2 mps 727 mmHg 93%
    01:00 +5°C° 0.4 mm 2 mps 726 mmHg 94%
    02:00 +5°C° 0.2 mm 2 mps 726 mmHg 93%
    03:00 +5°C° 0.2 mm 2 mps 725 mmHg 93%
    04:00 +4°C° 0.2 mm 2 mps 725 mmHg 92%
    05:00 +4°C° 0.4 mm 2 mps 725 mmHg 91%
    06:00 +4°C° 0.4 mm 2 mps 725 mmHg 90%
    07:00 +5°C° 0.4 mm 2 mps 725 mmHg 90%
    08:00 +5°C° 0.1 mm 3 mps 725 mmHg 86%
    09:00 +7°C° 0.1 mm 3 mps 725 mmHg 82%
    10:00 +8°C° 0.1 mm 3 mps 725 mmHg 78%
    11:00 +8°C° 0.1 mm 3 mps 724 mmHg 75%
    12:00 +9°C° 0.1 mm 3 mps 724 mmHg 72%
    13:00 +9°C° 0.1 mm 3 mps 724 mmHg 69%
    14:00 +9°C° 0 mm 3 mps 723 mmHg 70%
    15:00 +8°C° 0 mm 3 mps 723 mmHg 71%
    16:00 +8°C° 0 mm 2 mps 722 mmHg 72%
    17:00 +7°C° 0 mm 3 mps 722 mmHg 74%
    18:00 +5°C° 0 mm 3 mps 722 mmHg 75%
    19:00 +4°C° 0 mm 3 mps 721 mmHg 76%
    20:00 +4°C° 0 mm 3 mps 721 mmHg 76%
    21:00 +4°C° 0 mm 3 mps 720 mmHg 76%
    22:00 +4°C° 0 mm 3 mps 720 mmHg 76%
    23:00 +4°C° 0.1 mm 3 mps 719 mmHg 77%
    Show more